Weather History for Champaign, IL

Change the Weather History Date:

Wednesday, May 15, 2013

  Actual Average Record
Temperature  
Mean Temperature 77 °F 63 °F  
Max Temperature 88 °F 75 °F 93 °F (2001)
Min Temperature 65 °F 51 °F 36 °F (1997)
Degree Days  
Heating Degree Days 0 5  
Month to date heating degree days 74 93  
Since 1 July heating degree days 5599 5757  
Cooling Degree Days 12 3  
Month to date cooling degree days 25 23  
Year to date cooling degree days 33 34  
Growing Degree Days 26 (Base 50)    
Moisture  
Dew Point 56 °F    
Average Humidity 52    
Maximum Humidity 68    
Minimum Humidity 36    
Precipitation  
Precipitation 0.00 in 0.14 in 1.01 in (2008)
Month to date precipitation 1.49 2.29  
Year to date precipitation 13.73 12.90  
Sea Level Pressure  
Sea Level Pressure 29.83 in    
Wind  
Wind Speed 14 mph (WSW)    
Max Wind Speed 29 mph    
Max Gust Speed 35 mph    
Visibility 10 miles    
Events Thunderstorm    
T = Trace of Precipitation, MM = Missing Value Source: NWS Daily Summary

Daily Weather History Graph

Daily Weather History Graph

Search for Another Location

Airport:

Trip Planner

Search our weather history database for the weather conditions in past years. The results will help you decide how hot, cold, wet, or windy it might be!

Date:

Astronomy

May. 15, 2013 Rise Set
Actual Time 5:37 AM CDT 8:01 PM CDT
Civil Twilight 5:06 AM CDT 8:32 PM CDT
Nautical Twilight 4:28 AM CDT 9:10 PM CDT
Astronomical Twilight 3:46 AM CDT 9:53 PM CDT
Moon 10:12 AM CDT (5/15) No Moon Set
Length of Visible Light 15h 25m
Length of Day
14h 24m
Waxing Crescent, 27% of the Moon is Illuminated
May 15
Waxing Crescent
May 17
First Quarter
May 24
Full
May 31
Last Quarter
Jun 8
New

Hourly Weather History & Observations

Time (CDT) Temp. Heat Index Dew Point Humidity Pressure Visibility Wind Dir Wind Speed Gust Speed Precip Events Conditions
12:53 AM 71.1 °F - 53.1 °F 53% 29.78 in 10.0 mi SW 15.0 mph - N/A   Clear
1:53 AM 70.0 °F - 52.0 °F 53% 29.79 in 10.0 mi SW 17.3 mph - N/A   Clear
2:53 AM 68.0 °F - 53.1 °F 59% 29.80 in 10.0 mi SW 13.8 mph - N/A   Clear
3:53 AM 66.0 °F - 52.0 °F 60% 29.81 in 10.0 mi SW 10.4 mph - N/A   Clear
4:53 AM 64.9 °F - 52.0 °F 63% 29.82 in 10.0 mi SW 15.0 mph - N/A   Clear
5:53 AM 64.9 °F - 52.0 °F 63% 29.83 in 10.0 mi SW 12.7 mph - N/A   Clear
6:53 AM 68.0 °F - 53.1 °F 59% 29.86 in 10.0 mi SW 13.8 mph - N/A   Clear
7:53 AM 73.0 °F - 55.0 °F 53% 29.87 in 10.0 mi WSW 17.3 mph - N/A   Clear
8:53 AM 77.0 °F - 55.0 °F 47% 29.87 in 10.0 mi WSW 26.5 mph 32.2 mph N/A   Clear
9:53 AM 80.1 °F 80.4 °F 57.0 °F 45% 29.86 in 10.0 mi WSW 23.0 mph 33.4 mph N/A   Clear
10:53 AM 82.9 °F 82.4 °F 57.0 °F 41% 29.86 in 10.0 mi West 19.6 mph 29.9 mph N/A   Clear
11:53 AM 84.9 °F 83.9 °F 57.0 °F 38% 29.85 in 10.0 mi WSW 17.3 mph 24.2 mph N/A   Clear
12:53 PM 86.0 °F 84.9 °F 57.0 °F 37% 29.85 in 10.0 mi WSW 17.3 mph 24.2 mph N/A   Clear
1:53 PM 86.0 °F 84.9 °F 57.0 °F 37% 29.84 in 10.0 mi SW 12.7 mph 23.0 mph N/A   Clear
2:53 PM 87.1 °F 86.1 °F 57.9 °F 37% 29.82 in 10.0 mi West 15.0 mph 24.2 mph N/A   Clear
3:53 PM 86.0 °F 84.9 °F 57.0 °F 37% 29.81 in 10.0 mi West 18.4 mph - N/A   Clear
4:53 PM 84.9 °F 84.4 °F 59.0 °F 41% 29.80 in 10.0 mi WSW 11.5 mph - N/A   Clear
5:53 PM 84.9 °F 84.2 °F 57.9 °F 40% 29.80 in 10.0 mi WSW 16.1 mph - N/A   Clear
6:53 PM 84.9 °F 84.4 °F 59.0 °F 41% 29.79 in 10.0 mi WSW 12.7 mph - N/A   Clear
7:53 PM 80.1 °F 80.9 °F 60.1 °F 50% 29.80 in 10.0 mi WSW 8.1 mph - N/A   Clear
8:53 PM 77.0 °F - 59.0 °F 54% 29.82 in 10.0 mi ESE 6.9 mph - N/A   Partly Cloudy
9:22 PM 77.0 °F - 57.2 °F 50% 29.85 in 10.0 mi Calm Calm - N/A Thunderstorm Mostly Cloudy
9:53 PM 75.9 °F - 55.9 °F 50% 29.83 in 10.0 mi WSW 3.5 mph - N/A Thunderstorm Mostly Cloudy
10:15 PM 75.2 °F - 57.2 °F 53% 29.85 in 10.0 mi Variable 6.9 mph - N/A   Partly Cloudy
10:53 PM 75.9 °F - 62.1 °F 62% 29.83 in 10.0 mi SW 17.3 mph 27.6 mph N/A   Partly Cloudy
11:53 PM 73.9 °F - 63.0 °F 68% 29.83 in 10.0 mi SW 10.4 mph - N/A   Clear